Location: Grevenbroich
(51.0902°N, 6.5859°E)
Time: 22:40:47
(UTC+01:00)

ISS - Visible Passes

Search period start: 30 January 2023 00:00
Search period end: 09 February 2023 00:00
Orbit: 413 x 419 km, 51.6° (Epoch: 30 January)

Date Brightness Start Highest point End Pass type
(mag) Time Alt. Az. Time Alt. Az. Time Alt. Az.
30 Jan -3.6 18:30:59 10° W 18:34:22 73° SSW 18:37:03 15° ESE visible
30 Jan -1.3 20:08:03 10° W 20:09:58 20° WSW 20:09:58 20° WSW visible
31 Jan -2.2 19:19:11 10° W 19:22:12 31° SSW 19:23:38 22° SSE visible
01 Feb -2.7 18:30:23 10° W 18:33:36 43° SSW 18:36:50 10° SE visible
01 Feb -0.7 20:08:48 10° WSW 20:09:41 11° SW 20:10:21 10° SSW visible
02 Feb -1.0 19:19:00 10° W 19:21:11 16° SW 19:23:22 10° S visible
03 Feb -1.4 18:29:51 10° W 18:32:36 23° SW 18:35:21 10° SSE visible
05 Feb -0.5 18:30:04 10° WSW 18:31:20 12° SW 18:32:36 10° SSW visible
